Location: Beverley
(50.2667°N, 107.9667°W)
Time: 06:41:17
(UTC+00:00)

EO-79 - Pass Details

Date: 09 July 2022
Orbit: 588 x 603 km, 98.0° (Epoch: 17 August)

Event Time Altitude Azimuth Distance (km) Brightness Sun altitude
Rises 10:18:39 0° 3° (N) 2,865 ? -7.1°
Reaches altitude 10° 10:21:15 10° 347° (NNW) 1,959 ? -6.8°
Maximum altitude 10:24:24 21° 299° (WNW) 1,393 ? -6.5°
Drops below altitude 10° 10:27:32 10° 251° (WSW) 1,952 ? -6.1°
Enters shadow 10:28:33 - 243° (WSW) 2,282 ? -6.0°
